FW0050 Weather Reports


time (UTC)temp
C
wind
direction
speed
KPH
gust
KPH
rain 1hr
cm
rain 24hr
cm
rain mn
cm
humidity
%
barometer
mb
20211017153020 15 92 11.3 25.7 0.00 0.00 0.00 48 1017.5
20211017150958 15 52 9.7 22.5 0.00 0.00 0.00 52 1017.6
20211017145454 14 61 6.4 25.7 0.00 0.00 0.00 57 1017.7
20211017143515 13 20 11.3 20.9 0.00 0.00 0.00 57 1017.6
20211017142013 13 355 14.5 25.7 0.00 0.00 0.00 60 1017.5
20211017140453 12 22 11.3 19.3 0.00 0.00 0.00 64 1017.6
20211017134536 11 307 4.8 9.7 0.00 0.00 0.00 78 1017.4
20211017132453 11 333 6.4 9.7 0.00 0.00 0.00 77 1017.2
20211017130501 9 326 4.8 9.7 0.00 0.00 0.00 84 1017.0
20211017124520 8 319 6.4 9.7 0.00 0.00 0.00 87 1016.5
20211017123000 8 359 6.4 12.9 0.00 0.00 0.00 87 1016.4
20211017120957 8 323 6.4 11.3 0.00 0.00 0.00 87 1016.2
20211017115018 8 314 6.4 9.7 0.00 0.00 0.00 88 1016.2
20211017113508 8 345 4.8 11.3 0.00 0.00 0.00 89 1016.2
20211017111515 7 344 4.8 9.7 0.00 0.00 0.00 91 1016.0
20211017110010 7 325 1.6 4.8 0.00 0.00 0.00 92 1016.2
20211017104504 7 320 0.0 0.0 0.00 0.05 0.00 92 1016.1
20211017102544 7 292 0.0 0.0 0.00 0.05 0.00 94 1015.8
20211017101013 7 238 0.0 0.0 0.00 0.05 0.00 94 1015.6
20211017095503 7 237 0.0 0.0 0.00 0.08 0.00 93 1015.6
20211017093959 7 237 0.0 0.0 0.00 0.08 0.00 94 1015.6
20211017092017 7 291 0.0 0.0 0.00 0.08 0.00 93 1015.6
20211017090443 7 272 0.0 0.0 0.00 0.08 0.00 92 1015.7
20211017084526 8 297 0.0 0.0 0.00 0.15 0.00 92 1015.5
20211017083036 8 150 0.0 0.0 0.00 0.15 0.00 92 1015.5
20211017081459 7 250 0.0 0.0 0.00 0.15 0.00 94 1015.5
20211017075511 7 310 0.0 0.0 0.00 0.15 0.00 93 1015.5
20211017073505 7 309 0.0 0.0 0.00 0.15 0.00 93 1015.5
20211017071953 7 309 0.0 0.0 0.00 0.15 0.00 93 1015.6
20211017070033 8 309 0.0 0.0 0.00 0.15 0.00 93 1015.6
20211017064456 8 316 0.0 0.0 0.00 0.15 0.00 92 1015.5
20211017062520 8 324 0.0 0.0 0.00 0.15 0.00 92 1015.5
20211017061004 8 324 0.0 0.0 0.00 0.15 0.00 92 1015.4
20211017054957 8 313 0.0 0.0 0.00 0.15 0.00 93 1015.4
20211017053207 8 320 0.0 0.0 0.00 0.15 0.00 93 1015.4
20211017051007 7 320 0.0 0.0 0.00 0.15 0.00 93 1015.5
20211017045009 8 322 0.0 0.0 0.00 0.15 0.15 93 1015.4
20211017043014 8 323 0.0 0.0 0.00 0.15 0.15 92 1015.3
20211017041501 8 327 0.0 0.0 0.00 0.15 0.15 92 1015.1
20211017035947 8 327 0.0 0.0 0.00 0.15 0.15 91 1015.2
20211017033959 9 327 0.0 0.0 0.00 0.15 0.15 91 1015.2
20211017032012 8 314 0.0 0.0 0.00 0.15 0.15 92 1015.2
20211017030046 9 320 0.0 0.0 0.00 0.15 0.15 89 1015.2
20211017024036 9 319 0.0 0.0 0.00 0.15 0.15 90 1014.9
20211017022500 9 321 0.0 0.0 0.00 0.15 0.15 88 1014.7
20211017020951 9 323 0.0 0.0 0.00 0.15 0.15 87 1014.6
20211017015014 10 325 0.0 0.0 0.00 0.15 0.15 85 1014.4
20211017013000 10 285 0.0 0.0 0.00 0.15 0.15 83 1014.2
20211017011016 11 284 0.0 0.0 0.00 0.15 0.15 82 1014.2
20211017005032 11 305 0.0 3.2 0.00 0.15 0.15 80 1014.1
20211017002946 13 288 3.2 4.8 0.00 0.15 0.15 66 1014.0
20211017001038 14 318 3.2 8.0 0.00 0.15 0.15 62 1013.7
20211016235504 15 312 4.8 9.7 0.00 0.15 0.15 59 1013.4
20211016233947 15 314 4.8 11.3 0.00 0.15 0.15 57 1013.3
20211016232013 16 330 6.4 9.7 0.00 0.15 0.15 53 1013.0
20211016230505 17 338 6.4 12.9 0.00 0.15 0.15 49 1012.9
20211016224951 17 4 12.9 19.3 0.00 0.15 0.15 46 1012.8
20211016223023 18 25 11.3 20.9 0.00 0.15 0.15 45 1012.5
20211016221000 18 25 8.0 29.0 0.00 0.15 0.15 46 1012.4
20211016215455 18 357 12.9 25.7 0.00 0.15 0.15 44 1012.3
20211016213535 18 334 16.1 30.6 0.00 0.15 0.15 43 1012.0
20211016212000 18 319 14.5 27.4 0.00 0.15 0.15 47 1011.9
20211016210448 18 13 12.9 27.4 0.00 0.15 0.15 45 1011.8
20211016204548 19 326 14.5 29.0 0.00 0.15 0.15 46 1011.8
20211016202508 18 349 12.9 24.1 0.00 0.15 0.15 47 1011.8
20211016201005 19 335 20.9 35.4 0.00 0.15 0.15 44 1011.6
20211016195007 18 30 9.7 27.4 0.00 0.15 0.15 52 1011.6
20211016193023 19 335 19.3 33.8 0.00 0.15 0.15 51 1011.5
20211016191508 18 353 12.9 27.4 0.00 0.15 0.15 50 1011.7
20211016185954 18 31 16.1 29.0 0.00 0.15 0.15 54 1011.5
20211016184451 18 359 16.1 27.4 0.00 0.15 0.15 53 1011.8
20211016182514 18 7 17.7 27.4 0.00 0.15 0.15 52 1012.2
20211016181009 18 358 19.3 30.6 0.00 0.15 0.15 53 1012.2
20211016175502 18 328 24.1 40.2 0.00 0.15 0.15 54 1012.3
20211016173511 18 340 24.1 38.6 0.00 0.15 0.15 57 1012.4
20211016171508 17 354 19.3 33.8 0.00 0.15 0.15 61 1012.5
20211016170008 17 34 14.5 30.6 0.00 0.15 0.15 62 1012.6
20211016163522 17 345 9.7 27.4 0.00 0.15 0.15 71 1012.6
20211016162003 16 329 17.7 41.8 0.00 0.15 0.15 72 1012.4
20211016160500 16 20 12.9 25.7 0.00 0.15 0.15 73 1012.5
20211016154517 15 337 20.9 35.4 0.00 0.15 0.15 76 1012.5